Location: Cr�teil
(48.7927°N, 2.4657°E)
Time: 01:11:32
(UTC+00:00)

Daily predictions for brighter satellites

Satellite Brightness Start Highest point End
(mag) Time Altitude Azimuth Time Altitude Azimuth Time Altitude Azimuth
STARLINK-1361 4.4 00:00:04 10° WNW 00:03:01 37° N 00:05:58 10° ENE
STARLINK-1367 4.4 00:00:19 10° WNW 00:03:18 38° N 00:06:17 10° ENE
STARLINK-1366 4.4 00:00:42 10° WNW 00:03:40 37° N 00:06:37 10° ENE
STARLINK-1240 4.2 00:00:16 10° WNW 00:03:59 37° SW 00:03:59 37° SW
STARLINK-66 4.2 00:07:08 28° ESE 00:07:08 28° ESE 00:09:09 10° ENE
STARLINK-1338 4.5 00:03:50 10° W 00:07:42 48° N 00:11:35 10° ENE
Cosmos 2227 Rocket 2.5 00:02:22 10° NW 00:07:51 51° WSW 00:10:10 32° SSW
Cosmos 1763 Rocket 3.4 00:05:57 35° S 00:08:03 70° ESE 00:13:06 10° NNE
Landsat 4 3.7 00:04:39 10° N 00:08:23 72° WNW 00:09:24 45° SW
Cosmos 1709 Rocket 4.4 00:05:05 26° SSE 00:08:23 53° E 00:14:23 10° NNE
STARLINK-1216 4.3 00:05:18 10° WNW 00:08:47 34° SW 00:08:47 34° SW
NOSS 7 (E) 4.2 00:09:44 62° SSW 00:10:11 76° SE 00:13:17 10° NE
STARLINK-52 4.5 00:08:04 10° WNW 00:11:07 38° N 00:14:10 10° ENE
Cosmos 2084 Rocket 3.6 00:07:31 10° NW 00:11:59 77° NE 00:14:58 21° SE
Cosmos 1356 Rocket 4.1 00:08:40 10° NNW 00:12:42 44° W 00:13:55 34° SW
STARLINK-1237 4.5 00:10:19 10° WNW 00:13:34 31° SW 00:13:34 31° SW
Cosmos 1758 Rocket 4.1 00:15:28 32° SSE 00:17:08 49° E 00:21:25 10° NNE
SL-16 R/B 4.0 00:11:48 10° ESE 00:17:11 33° ENE 00:22:37 10° N
STARLINK-75 3.9 00:18:02 34° ESE 00:18:02 34° ESE 00:20:26 10° ENE
STARLINK-1309 4.5 00:19:50 24° ESE 00:19:50 24° ESE 00:21:34 10° E
STARLINK-1282 4.4 00:20:42 24° ESE 00:20:42 24° ESE 00:22:28 10° E
STARLINK-1283 4.2 00:20:03 37° SSE 00:20:16 37° SE 00:24:06 10° ENE
STARLINK-1313 4.2 00:21:38 28° ESE 00:21:38 28° ESE 00:23:38 10° ENE
STARLINK-80 4.2 00:21:07 34° SE 00:21:07 34° SE 00:24:26 10° ENE
STARLINK-1279 4.1 00:22:32 29° ESE 00:22:32 29° ESE 00:24:35 10° ENE
Nadezhda 1 Rocket 4.2 00:16:01 10° NNW 00:22:09 63° W 00:25:28 29° SSW
STARLINK-1298 4.3 00:23:16 26° ESE 00:23:16 26° ESE 00:25:10 10° ENE
CZ-4 R/B 3.7 00:18:07 10° NNE 00:22:53 83° ESE 00:24:50 35° S
STARLINK-1293 4.3 00:24:09 27° ESE 00:24:09 27° ESE 00:26:06 10° ENE
Cosmos 1300 4.3 00:20:21 10° NW 00:23:19 22° W 00:24:09 20° WSW
STARLINK-1255 4.2 00:25:54 28° ESE 00:25:54 28° ESE 00:27:56 10° ENE
STARLINK-22 4.0 00:26:16 33° ESE 00:26:16 33° ESE 00:28:38 10° ENE
SL-16 R/B 4.3 00:22:45 10° SE 00:25:52 15° E 00:29:00 10° ENE
Cosmos 2208 Rocket 4.4 00:23:37 30° SSE 00:25:58 53° ESE 00:31:11 10° NNE
STARLINK 1040 2.7 00:26:21 63° NNE 00:26:21 63° NNE 00:28:42 10° ENE
STARLINK-1297 4.1 00:26:32 33° SE 00:26:32 33° SE 00:29:32 10° ENE
STARLINK-1444 3.5 00:24:44 10° WNW 00:26:50 38° NNE 00:26:52 38° NNE
STARLINK-1452 3.5 00:25:24 10° NW 00:27:18 37° N 00:27:18 37° N
STARLINK-1311 4.0 00:28:27 30° ESE 00:28:27 30° ESE 00:30:24 10° ENE
Cosmos 2285 Rocket 4.0 00:21:29 10° NNW 00:27:53 85° WSW 00:31:55 24° SSE
STARLINK-1392 4.0 00:26:12 10° NW 00:27:26 26° NNW 00:27:26 26° NNW
STARLINK-1399 3.9 00:26:14 10° NW 00:27:36 28° NNW 00:27:36 28° NNW
STARLINK-1393 3.9 00:26:17 10° NW 00:27:35 27° NNW 00:27:35 27° NNW
STARLINK-1394 3.9 00:26:18 10° NW 00:27:36 27° NNW 00:27:36 27° NNW
STARLINK-1395 4.2 00:26:22 10° NW 00:27:24 22° NW 00:27:24 22° NW
STARLINK-1397 3.9 00:26:21 10° NW 00:27:44 29° NNW 00:27:44 29° NNW
STARLINK-1396 3.9 00:26:22 10° NW 00:27:42 28° NNW 00:27:42 28° NNW
STARLINK-1414 4.0 00:26:22 10° NW 00:27:36 26° NNW 00:27:36 26° NNW
STARLINK-1408 4.0 00:26:25 10° NW 00:27:38 25° NW 00:27:38 25° NW
STARLINK-1416 4.0 00:26:28 10° NW 00:27:43 26° NNW 00:27:43 26° NNW
STARLINK-1404 3.9 00:26:27 10° NW 00:27:49 28° NNW 00:27:49 28° NNW
STARLINK-1415 3.8 00:26:28 10° NW 00:27:57 30° NNW 00:27:57 30° NNW
STARLINK-1406 4.1 00:26:31 10° NW 00:27:41 24° NW 00:27:41 24° NW
STARLINK-1450 3.8 00:26:31 10° NW 00:28:00 30° NNW 00:28:00 30° NNW
STARLINK-1401 3.8 00:26:32 10° NW 00:28:00 30° NNW 00:28:00 30° NNW
STARLINK-1417 3.8 00:26:35 10° NW 00:28:04 30° NNW 00:28:04 30° NNW
STARLINK-1413 3.8 00:26:36 10° NW 00:28:05 30° NNW 00:28:05 30° NNW
STARLINK-1402 3.8 00:26:36 10° NW 00:28:04 30° NNW 00:28:04 30° NNW
STARLINK-1419 3.9 00:26:37 10° NW 00:27:59 28° NNW 00:27:59 28° NNW
STARLINK-1422 3.8 00:26:42 10° NW 00:28:09 30° NNW 00:28:09 30° NNW
STARLINK-1453 3.7 00:26:44 10° NW 00:28:19 33° NNW 00:28:19 33° NNW
STARLINK-1398 3.6 00:26:45 10° WNW 00:28:28 35° N 00:28:28 35° N
STARLINK-1420 3.8 00:26:47 10° NW 00:28:17 31° NNW 00:28:17 31° NNW
STARLINK-1440 3.7 00:26:49 10° NW 00:28:21 32° NNW 00:28:21 32° NNW
STARLINK-1460 3.8 00:26:50 10° NW 00:28:20 31° NNW 00:28:20 31° NNW
STARLINK-1436 (VISORSAT) 3.6 00:26:50 10° NW 00:28:33 35° N 00:28:33 35° N
STARLINK-1410 3.8 00:26:54 10° NW 00:28:22 30° NNW 00:28:22 30° NNW
STARLINK-1423 3.9 00:26:55 10° NW 00:28:16 28° NNW 00:28:16 28° NNW
STARLINK-1421 3.9 00:26:55 10° NW 00:28:16 28° NNW 00:28:16 28° NNW
STARLINK-1400 3.8 00:26:54 10° NW 00:28:24 31° NNW 00:28:24 31° NNW
STARLINK-1454 3.8 00:26:56 10° NW 00:28:26 31° NNW 00:28:26 31° NNW
STARLINK-1458 3.8 00:26:59 10° NW 00:28:24 29° NNW 00:28:24 29° NNW
STARLINK-1445 3.7 00:27:01 10° NW 00:28:35 32° NNW 00:28:35 32° NNW
STARLINK-1407 3.7 00:27:03 10° NW 00:28:35 32° NNW 00:28:35 32° NNW
STARLINK-1405 4.2 00:27:05 10° NW 00:28:09 23° NW 00:28:09 23° NW
STARLINK-1446 3.7 00:27:03 10° NW 00:28:37 32° NNW 00:28:37 32° NNW
STARLINK-1370 3.7 00:27:05 10° NW 00:28:37 32° NNW 00:28:37 32° NNW
STARLINK-1439 4.2 00:27:09 10° NW 00:28:12 23° NW 00:28:12 23° NW
STARLINK-1456 3.8 00:27:07 10° NW 00:28:32 29° NNW 00:28:32 29° NNW
STARLINK-1457 3.8 00:27:07 10° NW 00:28:33 30° NNW 00:28:33 30° NNW
STARLINK-1451 3.8 00:27:08 10° NW 00:28:33 29° NNW 00:28:33 29° NNW
STARLINK-1409 3.8 00:27:08 10° NW 00:28:33 30° NNW 00:28:33 30° NNW
STARLINK-1447 3.7 00:27:08 10° NW 00:28:41 32° NNW 00:28:41 32° NNW
STARLINK-1455 3.7 00:27:09 10° NW 00:28:41 32° NNW 00:28:41 32° NNW
STARLINK-1437 3.8 00:27:10 10° NW 00:28:38 30° NNW 00:28:38 30° NNW
STARLINK-1441 3.7 00:27:11 10° NW 00:28:44 32° NNW 00:28:44 32° NNW
STARLINK-1443 3.6 00:27:13 10° WNW 00:28:52 34° NNW 00:28:52 34° NNW
STARLINK-1351 3.7 00:27:15 10° NW 00:28:49 32° NNW 00:28:49 32° NNW
STARLINK-1418 3.7 00:27:15 10° NW 00:28:48 32° NNW 00:28:48 32° NNW
STARLINK-1403 3.7 00:27:15 10° WNW 00:28:52 33° NNW 00:28:52 33° NNW
STARLINK-1434 3.6 00:27:16 10° WNW 00:28:54 34° NNW 00:28:54 34° NNW
STARLINK-1442 3.7 00:27:16 10° NW 00:28:50 32° NNW 00:28:50 32° NNW
STARLINK-1448 3.7 00:27:18 10° NW 00:28:51 32° NNW 00:28:51 32° NNW
STARLINK-1433 3.7 00:27:19 10° NW 00:28:51 32° NNW 00:28:51 32° NNW
STARLINK-1449 3.7 00:27:21 10° WNW 00:28:57 33° NNW 00:28:57 33° NNW
STARLINK-1438 3.8 00:27:24 10° NW 00:28:49 29° NNW 00:28:49 29° NNW
STARLINK-1411 3.8 00:27:31 10° WNW 00:29:01 31° NNW 00:29:01 31° NNW
STARLINK-1412 3.7 00:27:31 10° WNW 00:29:05 32° NNW 00:29:05 32° NNW
CZ-2D R/B 3.8 00:27:40 10° NE 00:31:41 22° E 00:35:02 13° SE
Cosmos-2242 3.1 00:28:13 10° N 00:32:29 70° ENE 00:34:23 32° SSE
USA 81 4.1 00:30:17 31° S 00:32:53 78° E 00:38:12 10° N
Meteor 2-10 Rocket 3.4 00:27:49 10° NNW 00:32:57 73° W 00:35:15 32° S
USA 215 3.2 00:28:33 10° SE 00:35:04 65° SW 00:41:35 10° WNW
Cosmos 1953 Rocket 4.4 00:33:32 26° SSE 00:35:31 43° E 00:39:41 10° NNE
BREEZE-M R/B 3.1 00:29:29 10° W 00:36:15 87° NNW 00:39:40 10° E
STARLINK-42 2.9 00:36:26 56° SE 00:36:26 56° SE 00:39:24 10° ENE
Cosmos 1626 Rocket 4.4 00:34:39 27° SW 00:36:28 41° WNW 00:40:39 10° N
Meteor 1-21 Rocket 4.2 00:34:27 30° SSW 00:37:25 83° W 00:43:16 10° N
STARLINK-60 3.2 00:36:09 10° WNW 00:39:20 66° NNE 00:42:31 10° ESE
STARLINK-34 4.1 00:40:02 28° ESE 00:40:02 28° ESE 00:42:09 10° ENE
FALCON 9 DEB 4.5 00:36:14 10° WNW 00:39:32 41° N 00:42:50 10° E
STARLINK-41 2.9 00:40:11 56° SE 00:40:11 56° SE 00:43:04 10° ENE
GP-B 4.3 00:36:14 10° NNE 00:40:21 36° E 00:42:59 19° SE
STARLINK-1272 3.5 00:42:02 44° SSE 00:42:14 45° SE 00:45:38 10° ENE
SeaSat 1 4.1 00:38:32 10° NNE 00:42:43 28° NW 00:46:52 10° WSW
STARLINK-62 3.9 00:43:45 31° ESE 00:43:45 31° ESE 00:46:01 10° ENE
Cosmos 540 Rocket 3.5 00:41:07 32° S 00:43:32 72° ESE 00:48:39 10° NNE
STARLINK-1307 3.6 00:46:48 44° S 00:47:23 48° SE 00:50:59 10° ENE
Helios 1B rocket 2.7 00:44:35 10° N 00:48:41 59° WNW 00:50:24 32° SW
STARLINK-1290 3.5 00:50:11 43° S 00:50:53 51° SSE 00:54:31 10° ENE
Cosmos 1980 Rocket 2.2 00:51:50 28° SSW 00:54:51 77° ESE 01:00:32 10° NNE
Meteor 1-29 3.0 00:53:55 10° N 00:57:15 66° WNW 00:58:11 42° SW
STARLINK-1317 3.5 00:56:33 38° SSW 00:57:50 61° SSE 01:01:42 10° ENE
Cosmos 1455 2.9 00:55:39 10° NNW 00:59:08 38° W 01:00:05 32° SW
Cosmos 1328 3.7 00:59:35 36° SSW 01:01:08 78° W 01:05:09 10° N
STARLINK-55 2.9 01:00:33 37° WSW 01:01:41 85° NNW 01:04:54 10° ENE
STARLINK-1274 3.2 01:00:56 42° SSW 01:01:52 62° SSE 01:05:22 10° ENE
STARLINK-43 3.7 01:00:05 15° W 01:03:04 61° NNW 01:06:44 10° ENE
Cosmos 1937 Rocket 4.4 01:00:31 10° NW 01:05:11 33° WSW 01:07:11 25° SW
STARLINK-1291 3.3 01:04:15 37° SW 01:05:33 66° SSE 01:09:15 10° ENE
Cosmos 2369 4.1 01:02:04 21° SW 01:05:47 58° WNW 01:11:23 10° NNE
Lacrosse 4 Rocket 2.9 01:03:58 10° WNW 01:07:05 20° WSW 01:07:20 20° WSW
Meteor 1-11 4.3 01:03:54 24° S 01:07:18 71° E 01:12:52 10° NNE
Cosmos 1703 3.5 01:05:53 33° SW 01:07:25 60° WNW 01:11:19 10° N
STARLINK-1264 3.3 01:07:26 35° SW 01:08:51 69° SSE 01:12:35 10° ENE
ADEOS II 4.1 01:05:56 10° NE 01:09:41 19° E 01:13:26 10° SE
Cosmos 2263 Rocket 2.3 01:04:27 10° NNW 01:10:05 79° ENE 01:15:40 10° SSE
Cosmos 1825 Rocket 3.8 01:08:39 30° SW 01:10:37 58° WNW 01:14:57 10° N
Timation 1 Rocket 4.3 01:05:39 10° NNW 01:11:36 70° WSW 01:16:19 17° SSE
STARLINK-29 3.3 01:08:56 10° WNW 01:12:07 64° NNE 01:15:18 10° ESE
STARLINK-1267 3.2 01:10:39 33° SW 01:12:13 72° SSE 01:15:57 10° ENE
NOSS 2-1 (C) 4.4 01:12:04 22° SE 01:12:59 25° ESE 01:15:57 10° ENE
STARLINK-28 3.1 01:11:33 25° W 01:13:14 70° NNW 01:16:27 10° ENE
Cosmos 2297 Rocket 4.0 01:10:27 10° WNW 01:13:17 14° W 01:14:46 13° WSW
SL-4 R/B 2.3 01:08:48 10° WNW 01:13:39 77° SSW 01:18:22 10° ESE
STARLINK-64 4.0 01:14:12 33° S 01:14:52 36° SE 01:18:12 10° ENE
UNK 4.0 01:11:40 16° SSE 01:15:16 67° ENE 01:19:50 10° N
USA 229 DEB 3.9 01:08:17 10° NW 01:15:33 88° NE 01:23:11 10° SE
USA 229 3.9 01:08:24 10° NW 01:15:40 87° NE 01:23:17 10° SE
NOSS 3-1 (C) 4.0 01:08:59 10° NW 01:16:25 86° SW 01:25:02 10° SE
NOSS 2-1 (D) 4.2 01:16:50 24° SSE 01:17:50 28° ESE 01:20:57 10° ENE
Cosmos 372 Rocket 4.2 01:12:52 10° NNW 01:17:52 53° WSW 01:20:47 24° S
STARLINK-1207 3.2 01:17:09 28° SW 01:18:59 79° SSE 01:22:44 10° ENE
NPP 4.3 01:13:47 10° NNE 01:19:00 47° E 01:22:54 17° SSE
Cosmos 2184 Rocket 4.1 01:16:26 20° S 01:20:50 72° E 01:26:59 10° NNE
CZ-4C R/B 3.2 01:16:43 10° WSW 01:21:44 44° NW 01:27:47 10° NE
STARLINK-1266 3.2 01:20:25 27° WSW 01:22:23 83° SSE 01:26:09 10° ENE
BREEZE-M DEB (TANK) 2.3 01:23:13 36° SE 01:23:13 36° SE 01:25:14 10° E
STARLINK-33 3.1 01:21:40 23° W 01:23:27 66° NNW 01:26:33 10° ENE
NOSS 3-1 (A) 4.2 01:17:10 10° NW 01:24:33 78° NE 01:33:08 10° SE
STARLINK-1299 4.5 01:24:05 27° S 01:25:37 36° SE 01:29:33 10° ENE
STARLINK-1284 3.3 01:23:40 25° WSW 01:25:47 86° SSE 01:29:33 10° ENE
STARLINK-1320 4.2 01:23:39 10° WNW 01:26:39 42° NNE 01:29:39 10° E
STARLINK-26 3.4 01:24:27 18° W 01:26:54 65° NNW 01:30:20 10° ENE
STARLINK-1322 4.2 01:24:00 10° WNW 01:27:00 42° NNE 01:30:00 10° E
STARLINK-1324 4.2 01:24:19 10° WNW 01:27:19 42° N 01:30:19 10° E
BREEZE-M DEB (TANK) 1.2 01:24:41 10° W 01:27:21 71° N 01:29:43 10° E
STARLINK-1294 4.2 01:24:38 10° WNW 01:27:38 42° N 01:30:40 10° E
STARLINK-1261 4.2 01:25:01 10° WNW 01:28:01 42° NNE 01:31:01 10° E
STARLINK-1325 4.2 01:25:21 10° WNW 01:28:22 42° NNE 01:31:22 10° E
STARLINK-1333 4.2 01:25:44 10° WNW 01:28:44 42° NNE 01:31:44 10° E
STARLINK-1334 4.2 01:26:01 10° WNW 01:29:01 43° NNE 01:32:01 10° E
STARLINK-1258 3.3 01:26:59 23° WSW 01:29:13 90° SE 01:32:59 10° ENE
STARLINK-1326 4.2 01:26:20 10° WNW 01:29:20 43° NNE 01:32:20 10° E
STARLINK-1323 4.2 01:26:43 10° WNW 01:29:44 43° NNE 01:32:44 10° E
Cosmos 1869 3.9 01:26:00 10° N 01:29:48 53° ENE 01:33:01 14° SSE
STARLINK-1349 4.2 01:27:01 10° WNW 01:30:01 43° NNE 01:33:02 10° E
STARLINK-1336 4.2 01:27:20 10° WNW 01:30:21 43° NNE 01:33:21 10° E
Cosmos 2150 Rocket 4.1 01:25:28 10° NNW 01:30:31 55° WSW 01:33:54 20° S
STARLINK-1331 4.1 01:27:44 10° WNW 01:30:44 43° NNE 01:33:44 10° E
STARLINK-1344 4.1 01:28:01 10° WNW 01:31:02 43° NNE 01:34:03 10° E
STARLINK-1343 4.1 01:28:24 10° WNW 01:31:25 43° NNE 01:34:26 10° E
STARLINK-1346 4.1 01:28:40 10° WNW 01:31:44 44° NNE 01:34:46 10° E
STARLINK-1328 4.1 01:29:07 10° WNW 01:32:08 43° NNE 01:35:09 10° E
STARLINK-1354 4.1 01:29:25 10° WNW 01:32:26 44° NNE 01:35:27 10° E
STARLINK-1292 3.3 01:30:17 21° WSW 01:32:39 87° NNW 01:36:26 10° ENE
STARLINK-1347 4.1 01:29:42 10° WNW 01:32:43 44° NNE 01:35:44 10° E
STARLINK-1357 4.1 01:30:08 10° WNW 01:33:09 44° NNE 01:36:10 10° E
STARLINK-1335 4.1 01:30:25 10° WNW 01:33:26 44° NNE 01:36:27 10° E
Cosmos 2322 Rocket 3.0 01:29:42 17° S 01:33:39 41° ESE 01:38:54 10° NE
STARLINK-1327 4.1 01:30:46 10° WNW 01:33:47 44° NNE 01:36:48 10° E
STARLINK-1340 4.1 01:31:04 10° WNW 01:34:05 44° NNE 01:37:06 10° E
STARLINK-1356 4.1 01:31:27 10° WNW 01:34:29 44° NNE 01:37:29 10° E
STARLINK-1345 4.1 01:31:45 10° WNW 01:34:47 44° NNE 01:37:48 10° E
STARLINK-1355 4.1 01:32:07 10° WNW 01:35:09 44° NNE 01:38:09 10° E
STARLINK-1321 4.1 01:32:28 10° WNW 01:35:29 45° NNE 01:38:30 10° E
STARLINK-1358 4.1 01:32:51 10° WNW 01:35:52 45° NNE 01:38:53 10° E
STARLINK-1332 4.1 01:33:08 10° WNW 01:36:10 45° NNE 01:39:11 10° E
STARLINK-1348 4.1 01:33:28 10° WNW 01:36:30 45° NNE 01:39:32 10° E
STARLINK-1330 4.1 01:33:48 10° WNW 01:36:50 45° NNE 01:39:51 10° E
STARLINK-1288 4.4 01:35:19 25° S 01:37:01 36° SE 01:40:50 10° ENE
STARLINK-1363 4.0 01:34:08 10° WNW 01:37:10 45° NNE 01:40:11 10° E
STARLINK-1337 4.0 01:34:31 10° WNW 01:37:33 45° NNE 01:40:34 10° E
STARLINK-1342 4.0 01:34:50 10° WNW 01:37:51 45° NNE 01:40:53 10° E
STARLINK-1364 4.0 01:35:10 10° WNW 01:38:11 45° NNE 01:41:14 10° E
STARLINK-1268 3.0 01:36:29 22° WSW 01:38:20 71° NNW 01:41:26 10° ENE
STARLINK-1376 4.0 01:35:30 10° WNW 01:38:32 46° NNE 01:41:34 10° E
STARLINK-1360 4.0 01:35:50 10° WNW 01:38:53 46° NNE 01:41:55 10° E
STARLINK-1361 4.0 01:36:11 10° WNW 01:39:13 46° NNE 01:42:15 10° E
STARLINK-1289 3.4 01:36:51 18° WSW 01:39:30 81° NNW 01:43:17 10° ENE
STARLINK-1367 4.0 01:36:27 10° WNW 01:39:31 47° NNE 01:42:35 10° E
STARLINK-1366 4.0 01:36:50 10° WNW 01:39:53 46° NNE 01:42:54 10° E
Resurs 1-4 Rocket 2.1 01:35:41 10° NNE 01:41:01 82° ESE 01:44:54 19° SSW
Cosmos 1697 Rocket 4.0 01:36:19 11° WSW 01:41:09 33° NW 01:46:16 10° NNE
STARLINK-1301 3.5 01:38:35 17° WSW 01:41:29 78° NNW 01:45:21 10° ENE
STARLINK-1308 4.3 01:40:08 24° SSW 01:42:01 39° SE 01:45:54 10° ENE
STARLINK-66 3.6 01:39:32 13° W 01:42:13 54° NNW 01:45:23 10° ENE
Cosmos 2278 4.4 01:38:01 16° WSW 01:42:20 45° NW 01:47:48 10° NNE
Cosmos 841 Rocket 4.4 01:38:49 16° WSW 01:42:32 38° WNW 01:47:25 10° N
Cosmos 1400 Rocket 3.7 01:39:03 10° NNW 01:42:52 36° W 01:44:45 23° SW
STARLINK-1303 3.4 01:40:12 17° WSW 01:42:59 78° NNW 01:46:46 10° ENE
STARLINK-1316 3.1 01:41:30 19° WSW 01:43:36 67° NNW 01:46:44 10° ENE
Cosmos 1125 Rocket 3.5 01:39:01 10° NNW 01:44:12 68° WSW 01:48:53 13° S
STARLINK-1257 3.2 01:42:21 18° W 01:44:29 66° NNW 01:47:37 10° ENE
STARLINK-1256 3.2 01:43:18 18° W 01:45:28 65° NNW 01:48:35 10° ENE
STARLINK-58 2.9 01:44:00 22° WSW 01:45:55 82° NNW 01:49:06 10° ENE
STARLINK-1213 3.2 01:44:08 17° W 01:46:21 64° NNW 01:49:28 10° ENE
STARLINK-1312 3.5 01:43:33 16° WSW 01:46:30 75° NNW 01:50:16 10° ENE
STARLINK-1338 4.4 01:43:14 10° WNW 01:47:09 51° NNE 01:51:03 10° E
STARLINK-1263 3.2 01:45:01 17° W 01:47:14 64° NNW 01:50:21 10° ENE
STARLINK-52 2.8 01:44:15 10° WNW 01:47:29 87° SSW 01:50:41 10° ESE
Meteor 2-17 Rocket 4.5 01:42:53 17° S 01:47:44 85° E 01:53:52 10° N
STARLINK-1259 3.2 01:45:54 17° W 01:48:11 63° NNW 01:51:17 10° ENE
STARLINK-1265 3.2 01:46:15 16° W 01:48:35 63° NNW 01:51:43 10° ENE
STARLINK-1285 3.2 01:46:44 16° W 01:49:03 62° NNW 01:52:10 10° ENE
STARLINK-1296 3.3 01:48:29 15° W 01:50:52 61° NNW 01:53:58 10° ENE
STARLINK-1260 3.3 01:49:21 15° W 01:51:46 60° NNW 01:54:53 10° ENE
STARLINK-1304 4.1 01:49:41 23° SSW 01:51:55 45° SE 01:55:53 10° ENE
STARLINK-1318 3.3 01:50:13 15° W 01:52:41 60° NNW 01:55:48 10° ENE
Cosmos 1408 4.3 01:49:45 10° SSE 01:52:57 29° E 01:56:10 10° NNE
STARLINK-75 3.7 01:50:26 11° W 01:53:28 52° NNW 01:56:39 10° ENE
STARLINK-1275 3.3 01:51:06 14° W 01:53:36 59° NNW 01:56:42 10° ENE
STARLINK-1309 3.4 01:51:57 14° W 01:54:29 58° NNW 01:57:34 10° ENE
Cosmos 2154 Rocket 4.0 01:49:51 15° S 01:55:08 83° E 02:01:24 10° N
STARLINK-1282 3.4 01:52:49 14° W 01:55:23 58° NNW 01:58:28 10° ENE
STARLINK-1371 4.3 01:51:31 10° WNW 01:55:25 53° NNE 01:59:18 10° E
STARLINK-1313 3.5 01:53:45 12° W 01:56:30 54° NNW 01:59:35 10° ENE
STARLINK-48 3.4 01:53:48 19° WSW 01:56:31 81° SSE 02:00:25 10° ENE
STARLINK-1279 3.5 01:54:40 12° W 01:57:26 53° NNW 02:00:31 10° ENE
GEOS 3 Rocket 3.6 01:52:34 10° SE 01:57:46 80° SW 02:03:06 10° NW
STARLINK-1278 3.9 01:55:21 21° SW 01:58:02 56° SSE 02:02:13 10° ENE
STARLINK-1298 3.4 01:55:23 13° W 01:58:03 56° NNW 02:01:08 10° ENE
STARLINK-1293 3.5 01:56:16 13° W 01:58:59 56° NNW 02:02:05 10° ENE
STARLINK-80 3.7 01:55:29 11° WSW 01:59:04 65° NNW 02:02:51 10° ENE
Cosmos 1825 4.2 01:56:34 10° SE 01:59:36 24° E 02:02:40 10° NE
STARLINK-1283 3.9 01:55:36 10° WSW 01:59:40 66° NNW 02:03:47 10° ENE
STARLINK-1341 4.3 01:55:55 10° WNW 01:59:49 55° NNE 02:03:44 10° E
STARLINK-1280 3.9 01:57:08 20° SW 01:59:52 58° SSE 02:04:04 10° ENE
STARLINK 1040 4.4 01:58:01 10° WNW 02:00:20 29° N 02:02:40 10° ENE
SL-16 R/B 2.8 01:55:29 15° S 02:00:34 53° W 02:06:37 10° NNW
Iridium 2 3.7 01:56:50 10° NNW 02:00:34 62° W 02:03:11 19° SSW
STARLINK-1255 3.5 01:58:01 12° W 02:00:47 55° NNW 02:03:53 10° ENE
STARLINK-22 3.6 01:58:39 11° W 02:01:42 53° NNW 02:04:51 10° ENE
SL-08 R/B 4.2 01:57:58 10° SE 02:02:25 49° ENE 02:06:53 10° N
Meteor 2-2 Rocket 4.4 01:56:32 10° NNW 02:02:34 75° W 02:08:31 10° S
Cosmos 1241 Rocket 4.5 01:57:57 17° SW 02:02:48 89° ESE 02:09:06 10° NE
STARLINK-1311 3.6 02:00:03 10° W 02:02:50 47° NNW 02:05:43 10° ENE
STARLINK-1297 3.6 02:00:20 11° W 02:03:44 63° NNW 02:07:20 10° ENE
STARLINK-1374 4.2 02:00:23 10° WNW 02:04:20 57° NNE 02:08:17 10° E
Cosmos 1844 Rocket 3.6 01:59:04 10° NNW 02:04:34 51° NE 02:09:59 10° SE
NOSS 2-1 (E) 3.0 02:04:58 21° SW 02:07:08 79° SE 02:10:52 10° NE
CRYOSAT 2 4.4 02:02:33 10° N 02:07:27 73° W 02:11:31 15° SSW
STARLINK-1339 4.2 02:04:33 10° WNW 02:08:29 58° NNE 02:12:23 10° E
STARLINK-1286 3.8 02:05:37 18° SW 02:08:31 59° SSE 02:12:38 10° ENE
SL-16 R/B 2.2 02:04:36 17° SSW 02:09:07 88° ESE 02:14:50 10° NNE
STARLINK-1281 3.8 02:08:48 18° SW 02:11:45 60° SSE 02:15:51 10° ENE
CZ-2D R/B 2.3 02:07:00 10° N 02:12:08 59° WNW 02:16:21 15° SW
STARLINK-42 4.0 02:09:11 10° W 02:12:11 42° NNW 02:15:11 10° ENE
IRIDIUM 104 4.4 02:07:38 11° S 02:12:37 86° E 02:17:52 10° N
Cosmos 2221 2.9 02:08:36 10° NNW 02:12:49 48° W 02:16:16 15° SSW
STARLINK-1377 4.1 02:09:05 10° WNW 02:13:03 61° NNE 02:17:02 10° E
STARLINK-1029 3.2 02:11:18 13° WSW 02:14:02 67° NNW 02:17:12 10° ENE
STARLINK-34 3.4 02:11:58 11° W 02:14:54 55° NNW 02:17:56 10° ENE
STARLINK-60 3.9 02:12:30 10° W 02:15:13 26° SW 02:17:56 10° SSE
STARLINK-41 4.0 02:12:49 10° W 02:15:43 41° NNW 02:18:39 10° ENE
STARLINK-1310 3.7 02:13:35 16° SW 02:16:44 64° SSE 02:20:50 10° ENE
FALCON 9 DEB 3.0 02:13:19 10° WNW 02:16:47 81° SSW 02:20:15 10° ESE
STARLINK-1353 4.1 02:13:25 10° WNW 02:17:24 63° NNE 02:21:24 10° E
GP-B 4.4 02:13:49 10° NNW 02:17:30 26° WNW 02:20:25 14° SW
Nadezhda 3 Rocket 4.2 02:11:56 10° NNW 02:18:09 61° W 02:24:23 10° S
Cosmos 1315 Rocket 3.4 02:14:53 10° NNW 02:18:32 38° W 02:21:25 15° SSW
STARLINK-62 3.5 02:15:44 10° W 02:18:44 53° NNW 02:21:43 10° ENE
USA 215 4.4 02:15:22 13° SSW 02:18:56 20° WSW 02:23:30 10° WNW
STARLINK-1272 3.9 02:16:03 10° W 02:19:30 53° NNW 02:23:00 10° ENE
Cosmos 1842 Rocket 4.4 02:15:57 10° NNW 02:20:00 35° W 02:23:12 15° SSW
STARLINK-1319 3.7 02:18:21 15° SW 02:21:40 69° SSE 02:25:48 10° ENE
IRIDIUM 114 4.3 02:16:46 11° S 02:21:46 81° W 02:27:01 10° N
CBERS-1 4.0 02:16:38 10° NNE 02:21:48 89° WNW 02:26:39 12° SSW
STARLINK-1375 4.0 02:17:48 10° WNW 02:21:48 65° NNE 02:25:48 10° ESE
STARLINK-1307 4.0 02:21:47 10° W 02:25:26 53° NNW 02:29:06 10° ENE
STARLINK-1350 3.9 02:22:08 10° WNW 02:26:09 68° NNE 02:30:10 10° ESE
STARLINK-1277 3.6 02:23:08 14° SW 02:26:39 73° SSE 02:30:48 10° ENE
Shenzhou-11 Module 3.0 02:26:47 18° SSW 02:27:19 20° S 02:29:13 10° SE
STARLINK-1290 4.1 02:25:19 10° W 02:28:57 52° NNW 02:32:37 10° ENE
STARLINK-59 4.5 02:27:25 14° SSW 02:29:56 29° SE 02:33:04 10° E
STARLINK-1352 3.8 02:26:19 10° WNW 02:30:20 71° NNE 02:34:20 10° ESE
Cosmos 2058 3.1 02:27:00 13° SSW 02:30:38 61° WNW 02:34:50 10° N
IRIDIUM 103 4.4 02:25:55 11° SSW 02:30:57 68° W 02:36:11 10° N
Cosmos 2360 Rocket 2.6 02:25:44 10° S 02:31:12 61° ESE 02:36:47 10° NNE
STARLINK-1276 3.6 02:27:56 13° WSW 02:31:39 78° SSE 02:35:48 10° ENE
STARLINK-73 4.5 02:30:38 13° SSW 02:33:19 30° SE 02:36:31 10° ENE
STARLINK-38 4.4 02:32:12 13° SSW 02:34:56 31° SE 02:38:11 10° ENE
STARLINK-1368 3.8 02:31:01 10° WNW 02:35:03 74° NNE 02:39:04 10° ESE
STARLINK-65 4.4 02:33:46 13° SSW 02:36:34 31° SE 02:39:50 10° ENE
STARLINK-1305 3.6 02:32:42 11° WSW 02:36:36 82° SSE 02:40:45 10° ENE
STARLINK-1317 4.3 02:32:53 10° W 02:36:42 50° N 02:40:32 10° ENE
STARLINK-68 4.3 02:34:23 13° SSW 02:37:14 34° SE 02:40:35 10° ENE
STARLINK-1306 3.6 02:33:14 11° WSW 02:37:16 86° SSE 02:41:30 10° ENE
STARLINK-55 4.4 02:35:01 10° WNW 02:38:03 37° N 02:41:04 10° ENE
STARLINK-53 4.3 02:35:24 13° SSW 02:38:15 34° SE 02:41:35 10° ENE
STARLINK-1274 4.2 02:35:52 10° W 02:39:18 46° N 02:42:45 10° ENE
STARLINK-1369 3.7 02:35:27 10° WNW 02:39:29 77° NNE 02:43:31 10° ESE
Cosmos 1980 Rocket 3.8 02:34:55 10° W 02:39:29 24° NW 02:44:05 10° N
CZ-4B R/B 4.1 02:34:31 10° N 02:39:33 48° WNW 02:44:30 10° SW
STARLINK-50 4.4 02:37:26 12° SSW 02:40:33 33° SE 02:44:01 10° ENE
STARLINK-1262 3.6 02:37:31 10° WSW 02:41:37 87° SSE 02:45:46 10° ENE
STARLINK-1372 3.6 02:39:36 10° WNW 02:43:38 80° NNE 02:47:36 10° ESE
STARLINK-1291 4.3 02:40:08 10° W 02:43:46 47° N 02:47:23 10° ENE
Cosmos 2333 Rocket 3.7 02:39:58 10° SSE 02:44:54 32° ESE 02:49:52 10° NE
STARLINK-71 4.4 02:41:45 11° SSW 02:45:16 39° SE 02:49:02 10° ENE
STARLINK-1300 3.6 02:42:25 10° WSW 02:46:35 89° NNW 02:50:45 10° ENE
Meteor 1-28 Rocket 3.2 02:43:05 10° SSE 02:46:49 90° SE 02:50:35 10° NNW
STARLINK-1264 4.3 02:43:28 10° W 02:47:06 46° N 02:50:44 10° ENE
STARLINK-29 3.9 02:45:19 10° W 02:48:04 27° SW 02:50:48 10° SSE
STARLINK-1378 3.6 02:44:20 10° WNW 02:48:23 84° NNE 02:52:25 10° ESE
Cosmos 2219 Rocket 3.7 02:44:08 10° SSE 02:49:01 32° ESE 02:53:54 10° NE
STARLINK-28 4.5 02:46:38 10° WNW 02:49:39 37° N 02:52:40 10° ENE
ADEOS II 2.2 02:44:39 10° N 02:49:53 67° WNW 02:55:06 10° SSW
STARLINK-1267 4.4 02:46:52 10° W 02:50:29 46° N 02:54:07 10° ENE
STARLINK-1295 3.7 02:47:23 10° WSW 02:51:33 85° NNW 02:55:43 10° ENE
STARLINK-64 3.7 02:48:38 10° W 02:52:12 60° NNW 02:55:46 10° ENE
IRS-1D 4.0 02:47:31 10° N 02:52:38 51° WNW 02:57:37 10° SW
SL-4 R/B 3.4 02:49:07 10° W 02:52:53 23° SW 02:56:31 10° S
STARLINK-1379 3.6 02:48:51 10° WNW 02:52:53 88° NNE 02:56:56 10° ESE
Cosmos 2263 Rocket 3.6 02:49:37 10° WNW 02:53:19 18° W 02:57:00 10° SW
IDEFIX/ARIANE 42P 3.5 02:48:16 10° NNE 02:53:23 48° E 02:58:26 10° S
Cosmos 1606 3.1 02:50:26 10° N 02:54:12 67° E 02:57:58 10° SSE
ERS-2 2.1 02:52:47 10° SSE 02:56:27 80° WSW 03:00:08 10° NNW
STARLINK-1287 3.7 02:52:22 10° WSW 02:56:32 81° NNW 03:00:41 10° ENE
STARLINK-1329 3.5 02:52:40 10° WNW 02:56:44 88° SSW 03:00:46 10° ESE
STARLINK-25 3.8 02:53:38 10° SW 02:56:56 43° SE 03:00:14 10° ENE
STARLINK-1207 4.4 02:53:42 10° W 02:57:18 45° N 03:00:56 10° ENE
BREEZE-M R/B 2.0 02:55:09 10° WNW 02:58:45 69° SSW 03:01:14 10° ESE
ARIANE 5 R/B 2.5 02:54:03 10° NNE 02:59:06 87° WNW 03:04:06 10° SSW
ATLAS 5 CENTAUR R/B 4.1 02:57:41 10° SE 02:59:18 12° ESE 03:00:59 10° E
STARLINK-33 4.5 02:56:36 10° WNW 02:59:31 35° N 03:02:26 10° ENE
Cosmos 2341 Rocket 4.2 02:53:22 10° SSW 02:59:39 61° WNW 03:05:55 10° N
Cosmos 1892 3.9 02:57:03 10° SW 03:00:23 28° WNW 03:03:43 10° N
STARLINK-1266 4.5 02:57:07 10° W 03:00:44 44° N 03:04:22 10° ENE
STARLINK-1362 3.5 02:57:13 10° WNW 03:01:17 84° SSW 03:05:19 10° ESE
STARLINK-1320 2.9 02:59:29 10° WNW 03:02:34 58° SSW 03:05:38 10° SE
STARLINK-1322 2.9 02:59:50 10° WNW 03:02:55 58° SSW 03:05:59 10° SE
STARLINK-1324 2.9 03:00:10 10° WNW 03:03:14 57° SSW 03:06:19 10° SE
NOSS 2-1 (C) 4.4 03:00:14 10° W 03:03:20 31° NW 03:06:48 10° NNE
STARLINK-1294 2.9 03:00:27 10° WNW 03:03:33 57° SSW 03:06:39 10° SE
CZ-2C R/B 3.7 03:00:02 10° NNE 03:03:41 47° E 03:07:23 10° S
STARLINK-1015 4.4 03:00:02 10° SSW 03:03:56 41° SE 03:07:50 10° ENE
STARLINK-1261 2.9 03:00:51 10° WNW 03:03:56 57° SSW 03:06:59 10° SE
CZ-2D R/B 3.7 02:59:53 10° NNE 03:04:09 78° ESE 03:08:30 10° S
STARLINK-1284 4.5 03:00:33 10° W 03:04:10 44° N 03:07:47 10° ENE
STARLINK-1325 2.9 03:01:12 10° WNW 03:04:16 56° SSW 03:07:20 10° SE
STARLINK-1333 2.9 03:01:34 10° WNW 03:04:38 56° SSW 03:07:42 10° SE
STARLINK-1334 2.9 03:01:51 10° WNW 03:04:55 55° SSW 03:07:59 10° SE
STARLINK-1326 2.9 03:02:10 10° WNW 03:05:14 55° SSW 03:08:17 10° SE
STARLINK-1299 4.0 03:01:14 10° WSW 03:05:29 69° NNW 03:09:44 10° ENE
STARLINK-1323 2.9 03:02:34 10° WNW 03:05:38 55° SSW 03:08:42 10° SE
STARLINK-1373 3.5 03:01:42 10° WNW 03:05:44 80° SSW 03:09:45 10° ESE
STARLINK-1349 2.9 03:02:52 10° WNW 03:05:56 54° SSW 03:08:58 10° SE
IRS-1C 4.3 03:00:46 10° N 03:06:02 61° WNW 03:11:17 10° SSW
STARLINK-1336 2.9 03:03:10 10° WNW 03:06:15 54° SSW 03:09:18 10° SE
STARLINK-1302 3.8 03:02:21 10° WSW 03:06:30 74° NNW 03:10:39 10° ENE
STARLINK-1331 2.9 03:03:34 10° WNW 03:06:38 54° SSW 03:09:41 10° SE
STARLINK-1344 3.0 03:03:52 10° WNW 03:06:56 53° SSW 03:09:59 10° SE
Cosmos 1408 Rocket 4.3 03:03:03 10° S 03:07:14 54° E 03:11:27 10° NNE
STARLINK-1343 3.0 03:04:15 10° WNW 03:07:19 53° SSW 03:10:22 10° SE
STARLINK-1346 3.0 03:04:31 10° WNW 03:07:37 53° SSW 03:10:42 10° SE
STARLINK-1328 3.0 03:04:58 10° WNW 03:08:02 52° SSW 03:11:04 10° SE
STARLINK-24 3.9 03:04:21 10° SW 03:08:17 56° SSE 03:12:14 10° ENE
STARLINK-1354 3.0 03:05:16 10° WNW 03:08:19 52° SSW 03:11:22 10° SE
Cosmos 1844 3.8 03:02:33 10° NNW 03:08:21 72° WSW 03:14:06 10° SSE
STARLINK-1347 3.0 03:05:33 10° WNW 03:08:36 52° SSW 03:11:38 10° SE
STARLINK-1016 4.3 03:04:56 10° SW 03:08:52 44° SE 03:12:50 10° ENE
STARLINK-1357 3.0 03:05:59 10° WNW 03:09:02 52° SSW 03:12:04 10° SE
STARLINK-1335 3.0 03:06:16 10° WNW 03:09:19 51° SSW 03:12:21 10° SE
STARLINK-1327 3.0 03:06:37 10° WNW 03:09:40 51° SSW 03:12:42 10° SE
STARLINK-1340 3.0 03:06:55 10° WNW 03:09:57 51° SSW 03:13:00 10° SE
STARLINK-1390 3.5 03:06:22 10° WNW 03:10:25 76° SSW 03:14:27 10° ESE
